Time,TemperatureF,DewpointF,PressureIn,WindDirection,WindDirectionDegrees,WindSpeedMPH,WindSpeedGustMPH,Humidity,HourlyPrecipIn,Conditions,Clouds,dailyrainin,SoftwareType,DateUTC
2013-03-02 00:00:00,52.0,-99.9,-100.00,South,169,5.0,-999.0,-999,-99.99,,,-99.99,,2013-03-02 08:00:00,
2013-03-02 00:52:00,52.0,-99.9,-100.00,South,169,5.0,-999.0,-999,-99.99,,,-99.99,,2013-03-02 08:52:00,
2013-03-02 01:00:00,51.0,-99.9,-100.00,South,191,5.0,-999.0,-999,-99.99,,,-99.99,,2013-03-02 09:00:00,
2013-03-02 01:52:00,51.0,-99.9,-100.00,South,191,5.0,-999.0,-999,-99.99,,,-99.99,,2013-03-02 09:52:00,
2013-03-02 02:00:00,51.0,-99.9,-100.00,South,172,3.0,-999.0,-999,-99.99,,,-99.99,,2013-03-02 10:00:00,
2013-03-02 02:52:00,51.0,-99.9,-100.00,South,172,3.0,-999.0,-999,-99.99,,,-99.99,,2013-03-02 10:52:00,
2013-03-02 03:00:00,50.0,-99.9,-100.00,South,170,2.0,-999.0,-999,-99.99,,,-99.99,,2013-03-02 11:00:00,
2013-03-02 03:52:00,50.0,-99.9,-100.00,South,170,2.0,-999.0,-999,-99.99,,,-99.99,,2013-03-02 11:52:00,
2013-03-02 04:00:00,49.0,-99.9,-100.00,SSE,167,3.0,-999.0,-999,-99.99,,,-99.99,,2013-03-02 12:00:00,
2013-03-02 05:00:00,48.0,-99.9,-100.00,SSW,198,3.0,-999.0,-999,-99.99,,,-99.99,,2013-03-02 13:00:00,
2013-03-02 06:00:00,48.0,-99.9,-100.00,South,174,3.0,-999.0,-999,-99.99,,,-99.99,,2013-03-02 14:00:00,
2013-03-02 07:00:00,47.0,-99.9,-100.00,SSE,165,5.0,-999.0,-999,-99.99,,,-99.99,,2013-03-02 15:00:00,
2013-03-02 08:00:00,47.0,-99.9,-100.00,South,182,5.0,-999.0,-999,-99.99,,,-99.99,,2013-03-02 16:00:00,
2013-03-02 09:00:00,47.0,-99.9,-100.00,SW,215,6.0,-999.0,-999,-99.99,,,-99.99,,2013-03-02 17:00:00,
2013-03-02 10:00:00,48.0,-99.9,-100.00,SSW,195,6.0,-999.0,-999,-99.99,,,-99.99,,2013-03-02 18:00:00,
2013-03-02 10:52:00,48.0,-99.9,-100.00,SSW,195,6.0,-999.0,-999,-99.99,,,-99.99,,2013-03-02 18:52:00,
2013-03-02 11:00:00,49.0,-99.9,-100.00,South,184,6.0,-999.0,-999,-99.99,,,-99.99,,2013-03-02 19:00:00,
2013-03-02 12:00:00,50.0,-99.9,-100.00,South,183,6.0,-999.0,-999,-99.99,,,-99.99,,2013-03-02 20:00:00,
2013-03-02 13:00:00,52.0,-99.9,-100.00,SSW,204,7.0,-999.0,-999,-99.99,,,-99.99,,2013-03-02 21:00:00,
2013-03-02 13:53:00,52.0,-99.9,-100.00,SSW,204,7.0,-999.0,-999,-99.99,,,-99.99,,2013-03-02 21:53:00,
2013-03-02 14:00:00,52.0,-99.9,-100.00,WSW,239,7.0,-999.0,-999,-99.99,,,-99.99,,2013-03-02 22:00:00,
2013-03-02 15:00:00,51.0,-99.9,-100.00,SSW,208,7.0,-999.0,-999,-99.99,,,-99.99,,2013-03-02 23:00:00,
2013-03-02 16:00:00,51.0,-99.9,-100.00,South,191,7.0,-999.0,-999,-99.99,,,-99.99,,2013-03-03 00:00:00,
2013-03-02 17:00:00,51.0,-99.9,-100.00,SSW,195,8.0,-999.0,-999,-99.99,,,-99.99,,2013-03-03 01:00:00,
2013-03-02 18:00:00,50.0,-99.9,-100.00,SW,220,8.0,-999.0,-999,-99.99,,,-99.99,,2013-03-03 02:00:00,
2013-03-02 19:00:00,48.0,-99.9,-100.00,SW,216,8.0,-999.0,-999,-99.99,,,-99.99,,2013-03-03 03:00:00,
2013-03-02 20:00:00,46.0,-99.9,-100.00,NW,323,8.0,-999.0,-999,-99.99,,,-99.99,,2013-03-03 04:00:00,
2013-03-02 21:00:00,44.0,-99.9,-100.00,NNW,345,6.0,-999.0,-999,-99.99,,,-99.99,,2013-03-03 05:00:00,
2013-03-02 22:00:00,43.0,-99.9,-100.00,North,351,3.0,-999.0,-999,-99.99,,,-99.99,,2013-03-03 06:00:00,
2013-03-02 22:52:00,43.0,-99.9,-100.00,North,351,3.0,-999.0,-999,-99.99,,,-99.99,,2013-03-03 06:52:00,
2013-03-02 23:00:00,43.0,-99.9,-100.00,NW,324,5.0,-999.0,-999,-99.99,,,-99.99,,2013-03-03 07:00:00,